Regional Weather Roundup
Issued by NWS Glasgow, MT

Home | Current Version | Previous Version | Text Only | Print | Product List | Glossary On
Versions: 1 2 3 4 5 6 7 8 9 10 11 12 13 14 15 16 17 18 19 20 21 22 23 24 25 26 27 28 29 30 31 32 33 34 35 36 37 38 39 40 41 42 43 44 45 46 47 48 49 50
000
ASUS45 KGGW 042215
RWRGGW
HOURLY REGIONAL WEATHER ROUNDUP FOR NORTHEAST MONTANA
NATIONAL WEATHER SERVICE GLASGOW MONTANA
400 PM MDT SAT JUL 04 2015

NOTE: "FAIR" INDICATES FEW OR NO CLOUDS BELOW 12,000 FEET WITH NO
SIGNIFICANT WEATHER AND/OR OBSTRUCTIONS TO VISISBILITY.

NORTHEAST MONTANA


CITY           SKY/WX    TMP DP  RH WIND       PRES   REMARKS
GLASGOW        SUNNY     90  60  36 N20G29    29.72R
PLENTYWOOD       N/A     81  64  56 N12G30      N/A
WOLF POINT     MOSUNNY   94  63  35 N23G30    29.69R HAZE
JORDAN           N/A     97  48  18 NW21G26   29.72R
WINNETT          N/A     95  42  16 W15G26      N/A
SIDNEY         CLOUDY    84  52  32 SW16      29.66F
GLENDIVE       CLOUDY    86  52  30 SW20G29   29.73R
MALTA            N/A     88  59  37 NE12        N/A
SCOBEY           N/A     80  57  45 N14G22    29.78R

FORT PECK REPORTS


CITY           SKY/WX    TMP DP  RH WIND       PRES   REMARKS
FORT PECK        N/A     92  63  38 N16G28      N/A
THE PINES        N/A     95  47  19 N9G20       N/A

SOUTHEAST MONTANA


CITY           SKY/WX    TMP DP  RH WIND       PRES   REMARKS
BILLINGS       MOSUNNY   99  35  10 VRB5      29.80F
MILES CITY     MOSUNNY  101  51  18 SW18G24   29.67F
BAKER          MOSUNNY   92  49  22 S8        29.76F
LIVINGSTON     MOSUNNY   94  41  16 NW10      29.86F

CENTRAL MONTANA


CITY           SKY/WX    TMP DP  RH WIND       PRES   REMARKS
HAVRE          SUNNY     87  52  29 SE7G16    29.81F
LEWISTOWN      SUNNY     90  49  24 W12       29.88F
GREAT FALLS    SUNNY     88  49  25 VRB7      29.84F
CUT BANK       SUNNY     80  50  34 E6        29.87F
HELENA         SUNNY     97  36  12 W13       29.80F
BUTTE          SUNNY     90  31  12 N14G20    29.95F
BOZEMAN        MOSUNNY   90  42  18 NW10      29.88F

WESTERN MONTANA


CITY           SKY/WX    TMP DP  RH WIND       PRES   REMARKS
MISSOULA       SUNNY     96  34  11 NW5       29.78F
KALISPELL      NOT AVBL

NORTH DAKOTA


CITY           SKY/WX    TMP DP  RH WIND       PRES   REMARKS
WILLISTON      RAIN      74  60  61 SE3       29.72R
DICKINSON      PTSUNNY   85  67  54 S9        29.73F
MINOT          SUNNY     85  66  53 S14G25    29.68F
BISMARCK       MOSUNNY   89  71  55 S13       29.73F

SOUTHERN SASKATCHEWAN


CITY           SKY/WX    TMP DP  RH WIND       PRES   REMARKS
REGINA         MOSUNNY   75  61  60 N14       29.80S
ESTEVAN        PTSUNNY   79  66  65 N21       29.71F SMOKE
SWIFT CURRENT  MOSUNNY   77  52  41 N15G21    29.86S



USA.gov is the U.S. government's official web portal to all federal, state and local government web resources and services.